Total_Precipitation_Accumulation
1.96 2.43 2.98 3.80 4.90 5.88 6.19 5.72 5.28 5.03 4.67 4.33 3.76 3.48 3.61 3.55 3.32 2.96 2.59 2.55 2.47 2.56 2.87 2.63 2.86 2.68 2.85 3.00 3.12 3.32 3.37 3.25 3.40 3.63 3.61 3.22 2.83 2.75 2.64 2.74 3.02 2.88 2.82
2.18 2.89 3.90 4.44 4.74 4.91 4.67 4.38 4.21 4.07 3.58 3.35 3.29 3.13 3.19 2.94 2.80 2.68 2.77 2.37 2.23 2.32 2.35 2.75 2.74 2.77 3.04 3.04 3.04 3.26 3.19 3.08 3.20 3.54 3.81 3.51 3.28 2.78 2.16 2.34 2.39 2.51 2.80
2.36 3.17 3.76 3.88 3.63 3.30 3.17 3.16 3.31 3.12 3.03 3.13 3.11 3.06 3.16 2.86 2.68 2.66 2.77 2.36 2.04 2.04 2.18 2.36 2.58 2.82 2.73 2.93 3.04 2.96 3.12 3.19 3.15 3.20 3.70 3.71 3.44 2.99 2.41 2.15 2.21 2.42 2.76
1.91 2.34 2.62 2.50 2.59 2.71 2.73 2.87 3.00 2.82 2.87 2.92 2.71 2.63 2.58 2.47 2.47 2.53 2.62 2.64 2.19 2.01 2.02 2.12 2.34 2.56 2.46 2.78 2.56 2.78 3.19 3.24 3.02 2.99 2.98 3.07 3.21 3.27 2.87 2.44 2.15 2.22 2.42
1.38 1.53 1.62 1.73 1.92 2.04 2.21 2.48 2.79 2.82 2.70 2.58 2.58 2.63 2.47 2.48 2.48 2.50 2.60 2.70 2.49 2.19 1.96 2.05 2.28 2.40 2.37 2.48 2.54 2.96 3.00 2.98 2.97 2.98 3.01 3.01 2.98 2.89 2.89 2.70 2.37 2.14 1.91
1.24 1.35 1.36 1.45 1.63 1.77 1.97 2.22 2.61 2.77 2.74 2.58 2.50 2.53 2.59 2.61 2.55 2.59 2.58 2.40 2.37 2.33 2.13 2.12 2.30 2.28 2.30 2.37 2.46 2.76 2.78 2.96 3.11 3.12 2.99 3.08 2.94 2.84 3.03 2.67 2.34 2.15 1.63
1.16 1.34 1.36 1.35 1.45 1.56 1.68 1.79 2.08 2.40 2.55 2.51 2.50 2.49 2.66 2.59 2.38 2.29 2.27 2.24 2.02 1.97 2.04 2.12 2.32 2.22 2.24 2.32 2.64 2.79 2.74 2.92 2.97 2.92 2.84 2.88 2.64 2.68 2.82 2.66 2.18 2.00 1.64
1.10 1.23 1.29 1.26 1.31 1.37 1.52 1.67 1.99 2.19 2.37 2.42 2.41 2.43 2.49 2.39 2.22 2.26 2.08 2.07 1.98 1.89 1.97 2.08 2.10 2.11 2.18 2.21 2.68 2.55 2.62 2.79 2.72 2.54 2.87 2.74 2.38 2.61 2.73 2.75 2.87 2.46 2.09
0.93 1.04 1.11 1.23 1.31 1.29 1.44 1.58 1.87 2.25 2.48 2.58 2.64 2.58 2.55 2.52 2.46 2.39 2.16 1.97 2.09 1.98 2.08 2.16 2.18 2.20 2.36 2.52 2.75 2.57 2.61 2.78 2.59 2.59 2.87 2.70 2.44 2.53 2.59 2.78 3.10 3.15 2.66
0.92 1.11 1.32 1.40 1.28 1.15 1.26 1.41 1.71 2.21 2.52 2.69 2.66 2.50 2.69 2.58 2.55 2.46 2.25 2.08 2.08 2.13 2.27 2.41 2.40 2.47 2.48 2.59 2.76 2.55 2.69 2.72 2.59 2.69 2.90 2.84 2.66 2.74 2.68 2.78 3.01 3.25 3.11
0.97 1.20 1.50 1.51 1.34 1.15 1.12 1.28 1.67 2.02 2.28 2.48 2.56 2.41 2.35 2.30 2.33 2.35 2.28 2.22 2.22 2.20 2.23 2.36 2.42 2.40 2.44 2.57 2.70 2.49 2.58 2.57 2.59 2.64 2.78 2.82 3.07 3.07 2.96 3.09 3.12 3.17 3.24
1.02 1.08 1.27 1.46 1.35 1.26 1.21 1.42 1.74 1.94 2.08 2.20 2.25 2.19 2.17 2.17 2.12 2.07 2.14 2.22 2.13 2.04 2.12 2.22 2.23 2.17 2.30 2.51 2.53 2.42 2.51 2.57 2.53 2.72 3.00 2.90 3.05 3.12 3.16 3.30 3.08 3.12 3.46
0.86 0.91 1.05 1.20 1.31 1.27 1.29 1.53 1.80 1.88 1.97 1.98 2.06 2.00 1.98 1.95 1.91 1.90 1.98 2.09 2.11 2.11 2.15 2.20 2.14 2.12 2.20 2.36 2.38 2.55 2.68 2.67 2.68 2.85 2.96 3.07 3.42 3.20 3.24 3.23 3.06 3.06 3.30
0.88 0.90 1.00 1.20 1.28 1.33 1.35 1.43 1.63 1.81 1.79 1.75 1.87 2.02 2.10 2.15 2.12 2.03 2.09 2.21 2.35 2.35 2.42 2.43 2.44 2.46 2.42 2.41 2.49 2.65 2.74 2.76 2.75 2.93 3.01 3.08 3.27 3.35 3.50 3.44 3.43 3.57 3.74
0.89 0.89 0.97 1.15 1.30 1.48 1.55 1.55 1.58 1.66 1.81 1.96 2.09 2.37 2.55 2.55 2.41 2.34 2.43 2.46 2.56 2.50 2.71 2.73 2.72 2.82 2.78 2.56 2.73 2.86 2.83 3.03 2.96 3.04 3.01 3.02 3.26 3.39 3.52 3.27 3.45 3.82 3.98
0.89 0.85 0.96 1.15 1.22 1.28 1.39 1.45 1.52 1.61 1.71 1.83 2.00 2.28 2.54 2.69 2.63 2.64 2.79 2.81 2.78 2.87 3.00 2.99 2.97 2.94 2.59 2.81 3.00 3.02 3.11 3.20 3.13 3.07 3.12 3.10 3.12 3.03 3.01 3.01 3.16 3.44 3.60
0.92 0.92 0.94 1.03 1.25 1.21 1.24 1.39 1.51 1.68 1.87 2.14 2.36 2.51 2.74 2.91 2.85 2.75 2.75 2.78 2.84 2.85 2.93 3.01 3.11 2.89 2.82 2.97 2.81 2.85 2.83 2.90 2.98 3.03 3.10 2.85 2.68 2.89 2.66 2.80 2.92 2.86 2.88
1.22 1.26 1.34 1.31 1.40 1.37 1.40 1.51 1.66 1.86 1.98 2.11 2.35 2.53 2.74 2.85 2.92 2.95 2.89 2.98 3.11 3.15 3.21 3.22 3.18 3.07 2.89 2.89 2.68 2.78 2.63 2.63 2.66 2.74 2.83 2.81 2.69 2.70 2.81 2.82 2.67 2.39 2.29
1.31 1.42 1.52 1.53 1.54 1.62 1.78 1.98 2.06 2.22 2.38 2.49 2.68 2.77 2.81 2.88 2.92 2.97 3.12 3.25 3.36 3.35 3.38 3.36 3.33 3.28 3.24 3.22 2.87 2.79 2.58 2.62 2.63 2.72 2.76 2.73 2.54 2.71 2.69 2.61 2.51 2.35 2.16
1.47 1.56 1.60 1.65 1.87 1.92 1.99 2.18 2.43 2.59 2.74 2.89 2.99 3.06 3.12 3.13 3.09 3.10 3.22 3.31 3.37 3.39 3.42 3.30 3.31 3.23 3.17 3.29 3.05 2.86 2.57 2.57 2.63 2.79 2.85 2.85 2.60 2.67 2.61 2.47 2.46 2.29 2.19
1.70 1.74 1.80 1.90 2.06 2.16 2.23 2.36 2.62 2.88 3.07 3.09 3.12 3.19 3.30 3.47 3.60 3.64 3.44 3.29 3.30 3.39 3.44 3.37 3.40 3.36 3.27 3.27 2.92 2.76 2.63 2.67 2.73 2.70 2.67 2.73 2.77 2.49 2.32 2.21 2.14 2.20 2.36
1.94 1.99 2.04 2.09 2.12 2.24 2.41 2.52 2.70 2.81 2.99 3.03 3.15 3.24 3.30 3.24 3.25 3.57 3.65 3.62 3.49 3.35 3.32 3.37 3.27 3.16 3.10 2.94 2.62 2.42 2.42 2.51 2.53 2.54 2.57 2.64 2.67 2.36 2.11 1.85 1.77 1.91 1.99
1.92 1.95 2.03 2.15 2.11 2.11 2.31 2.60 2.68 2.73 2.75 2.86 2.99 3.21 3.33 3.39 3.37 3.38 3.49 3.51 3.42 3.19 2.96 2.97 3.00 2.97 2.98 2.87 2.57 2.27 2.18 2.22 2.14 2.23 2.51 2.57 2.42 2.21 2.03 1.91 1.85 1.77 1.68
1.78 1.85 1.85 1.91 2.01 2.12 2.30 2.37 2.41 2.58 2.84 2.96 2.99 3.06 3.16 3.20 3.30 3.39 3.36 3.30 3.26 3.18 2.99 2.96 2.97 2.96 2.90 2.68 2.39 2.21 2.10 2.06 2.02 2.14 2.39 2.48 2.47 2.31 2.15 2.04 1.89 1.67 1.62
1.69 1.78 1.88 1.93 2.04 2.09 2.27 2.39 2.43 2.49 2.65 2.75 2.73 2.82 2.98 3.07 3.16 3.28 3.34 3.18 3.06 3.08 2.97 3.00 3.16 3.05 2.79 2.60 2.44 2.16 2.05 2.04 2.14 2.24 2.33 2.47 2.50 2.47 2.39 2.21 2.07 1.94 1.78
1.71 1.83 1.91 1.99 2.04 2.08 2.18 2.23 2.31 2.44 2.59 2.67 2.72 2.72 2.77 2.90 3.00 2.95 2.99 3.03 2.77 2.71 2.54 2.58 2.65 2.64 2.53 2.42 2.32 2.18 2.09 2.07 2.13 2.12 2.18 2.45 2.51 2.53 2.51 2.41 2.23 2.07 1.93